Back to catalog

AETHER-12

AliveCommunicationsSSO
NORAD 67383·PAYLOAD·🇨🇦 Canada

Launched Jan 11, 2026 from Vandenberg Space Force Base

Loading…

Next Passes (next 24 hours)

TLE

FreshSource: Space-Track

Epoch: Sep 13, 2026, 23:01 UTC

1 67383U 26004W   26256.95940087  .00000666  00000-0  82986-4 0  9997
2 67383  97.8068 253.7982 0000171 328.5987  31.5218 14.85630834 36465

Track AETHER-12 in real time with AllMySat

Download on the App Store